Regional Weather Roundup
Issued by NWS Charleston, SC

Current Version | Previous Version | Graphics & Text | Print | Product List | Glossary On
Versions: 1 2 3 4 5 6 7 8 9 10 11 12 13 14 15 16 17 18 19 20 21 22 23 24 25 26 27 28 29 30 31 32 33 34 35 36 37 38 39 40 41 42 43 44 45 46 47 48 49 50
000
ASUS42 KCHS 240527
RWRCHS

REGIONAL WEATHER ROUNDUP
NATIONAL WEATHER SERVICE CHARLESTON SC
100 AM EDT TUE OCT 24 2017

NOTE: "FAIR" INDICATES FEW OR NO CLOUDS BELOW 12,000 FEET WITH NO
SIGNIFICANT WEATHER AND/OR OBSTRUCTIONS TO VISIBILITY.

NOT ALL STATIONS ARE QUALITY CONTROLLED. USE DATA WITH CAUTION...
ESPECIALLY DEWPOINT OBSERVATIONS.

SCZ027-030-031-034>040-042>050-240600-
...SOUTHEAST SOUTH CAROLINA...

CITY           SKY/WX    TMP DP  RH WIND       PRES   REMARKS
N CHARLESTON   PTCLDY    68  65  90 W5        29.88S
WATERFRONT PRK NOT AVBL
JOHNS ISLAND   FAIR      70  68  94 W6        29.87F
PINOPOLIS        N/A     70  68  94 SW7       29.79F
MONCKS CORNER  FAIR      66  64  94 CALM      29.87F
SUMMERVILLE    FAIR      66  64  94 W3        29.89S
BEAUFORT MCAS  PTCLDY    69  68  96 MISG      29.89S
BEAUFORT ARPT  FAIR      68  64  88 W9        29.88F
HILTON HEAD IS CLEAR     70  66  88 VRB5      29.89F
WALTERBORO     MOCLDY    64  63  94 W3        29.89S
ALLENDALE        N/A     63  61  94 CALM        N/A

...SOUTHERN MIDLANDS AND PEE DEE...

CITY           SKY/WX    TMP DP  RH WIND       PRES   REMARKS
GEORGETOWN     CLOUDY    68  68 100 W5        29.88F
KINGSTREE      FAIR      63  61  94 CALM      29.86F
ORANGEBURG     CLEAR     64  61  90 W5        29.88F
BARNWELL         N/A     63  61  94 W5        29.88F
AIKEN          FAIR      55  55 100 W7        29.93F
MANNING        FAIR      64  63  94 MISG      29.87S
COLUMBIA       CLEAR     62  61  96 W8        29.87S
SUMTER         CLEAR     64  62  94 W10       29.84F
FLORENCE       CLEAR     63  63 100 SW6       29.86F
MYRTLE BEACH   CLOUDY    69  66  90 NW5       29.88F
N MYRTLE BEACH CLOUDY    70  66  87 VRB5      29.87S

$$

GAZ063-065-086>088-099>101-113>116-118-119-134>141-150-240600-
...SOUTHEAST GEORGIA...

CITY           SKY/WX    TMP DP  RH WIND       PRES   REMARKS
SAVANNAH ARPT  PTCLDY    68  64  87 W6        29.90S
HUNTER AAF     CLEAR     67  64  91 W3        29.87S
FORT STEWART   PTCLDY    67  61  81 NW6       29.89S
STATESBORO     CLEAR     62  55  79 NW6       29.91S
SYLVANIA       CLEAR     62  62 100 NW3       29.91S
CLAXTON        FAIR      61  60  96 SW3       29.92S

...CSRA...CENTRAL AND FAR SOUTHEAST GEORGIA...

CITY           SKY/WX    TMP DP  RH WIND       PRES   REMARKS
THOMSON        CLEAR     57  54  87 N6        29.97S
AUGUSTA-BUSH   CLEAR     62  56  80 W7        29.90F
AUGUSTA-DANIEL CLEAR     63  55  75 W7        29.91F
SWAINSBORO     FAIR      59  59 100 MISG      29.93S
VIDALIA        CLEAR     61  55  82 NW7       29.93S
EASTMAN        FAIR      59  47  64 NW7       29.98S
HAZLEHURST     FAIR      61  51  69 CALM      29.93S
ALMA           PTCLDY    64  56  75 NW6       29.93S
WAYCROSS       MOCLDY    64  58  80 NW5       29.94S
JESUP          NOT AVBL
BAXLEY         FAIR      61  55  82 NW6       29.93S
BRUNSWICK      CLOUDY    70  64  83 NW7       29.91F
SAINT SIMONS   MOCLDY    71  69  93 NW7       29.89F

$$

SCZ027-028-034-036>038-045-046-048>050-GAZ119-141-240600-
...LAKE AND SUPPLEMENTAL COASTAL OBSERVATIONS...

STATION/POSITION TIME  TEMP    WIND        PRES    WAVE   SWELL
                       AIR SEA DIR/SP/G            HT/PER HT/PER/DIR
                 (UTC) (F)     (DEG/KT/KT) (MB)    (FT/S) (FT/S/D)
WINYAH BAY       0445   70     300/  5     1010.0F
LAKE MURRAY      0450   64     250/ 10/ 15 1010.8F
ACE BASIN NERRS  0445   68        CALM     1012.0S
FORT PULASKI     0500   72 74  310/  9/ 11 1012.4
SAPELO ISLAND    NOT AVBL

$$

ANZ835-935-AMZ111-154-330-350-352-354-370-450-454-472-240600-
...C-MAN AND BUOY OBSERVATIONS...

STATION/POSITION TIME  TEMP    WIND        PRES    WAVE   SWELL
                       AIR SEA DIR/SP/G            HT/PER HT/PER/DIR
                 (UTC) (F)     (DEG/KT/KT) (MB)    (FT/S) (FT/S/D)
BUOY 41004       0500   76 80  200/ 19/ 27 1010.4
BUOY 41008       0450   76 77  220/ 17/ 21 1011.5F   5/ 7
FOLLY BEACH CMAN 0500   71     290/  5/  8 1012.1F
CAPERS NEARSHORE 0508   68 74  300/ 12/ 17 1010.4F
FRIPP NEARSHORE  0508   73     310/  8/ 14   N/A


STATION/POSITION TIME  TEMP    WIND        PRES    WAVE   SWELL
                       AIR SEA DIR/SP/G            HT/PER HT/PER/DIR
                 (UTC) (F)     (DEG/KT/KT) (MB)    (FT/S) (FT/S/D)
5E ST. MARYS GA  0500      77                N/A     4/ 7
FRYING PAN BUOY  0500   80 78  180/ 25/ 33 1011.1
BUOY 41025       0450   79 80  170/ 27/ 35 1013.4F  10/ 8
CAPE LOOKOUT NC  0500   76     170/ 21/ 24 1013.3R
BUOY 41002       0450   78 80  160/ 16/ 19 1016.3F   5/ 6   2/100/ 8
BUOY 41010       NOT AVBL
ST AUGUSTINE FL  0500   73 78  240/  4/  5 1013.1F


$$



USA.gov is the U.S. government's official web portal to all federal, state and local government web resources and services.